TimeCDT,TemperatureF,Dew PointF,Humidity,Sea Level PressureIn,VisibilityMPH,Wind Direction,Wind SpeedMPH,Gust SpeedMPH,PrecipitationIn,Events,Conditions,WindDirDegrees,DateUTC
12:53 AM,75.0,73.0,94,29.95,10.0,SE,6.9,-,N/A,,Clear,140,2013-10-04 05:53:00
1:53 AM,75.0,73.0,94,29.96,8.0,SE,5.8,-,N/A,,Clear,140,2013-10-04 06:53:00
2:53 AM,73.9,73.0,97,29.94,6.0,SSE,3.5,-,N/A,,Mostly Cloudy,150,2013-10-04 07:53:00
3:48 AM,75.2,73.4,94,29.92,8.0,SE,5.8,-,N/A,,Overcast,140,2013-10-04 08:48:00
3:53 AM,75.0,73.9,96,29.93,8.0,SE,8.1,-,N/A,,Overcast,140,2013-10-04 08:53:00
4:53 AM,75.0,73.9,96,29.93,7.0,SSE,5.8,-,N/A,,Overcast,150,2013-10-04 09:53:00
5:53 AM,75.0,73.9,96,29.94,7.0,Calm,Calm,-,N/A,,Overcast,0,2013-10-04 10:53:00
6:53 AM,75.0,73.0,94,29.95,8.0,Calm,Calm,-,N/A,,Overcast,0,2013-10-04 11:53:00
7:53 AM,75.9,73.9,94,29.97,8.0,SE,6.9,-,N/A,,Overcast,130,2013-10-04 12:53:00
8:53 AM,77.0,75.0,94,29.98,9.0,SE,8.1,-,N/A,,Overcast,140,2013-10-04 13:53:00
9:43 AM,78.8,75.2,89,29.98,9.0,SE,10.4,-,N/A,,Overcast,130,2013-10-04 14:43:00
9:53 AM,79.0,75.0,88,29.99,10.0,SE,9.2,-,N/A,,Overcast,140,2013-10-04 14:53:00
10:53 AM,80.1,75.0,85,29.99,10.0,SE,8.1,-,0.00,,Overcast,140,2013-10-04 15:53:00
11:17 AM,80.6,75.2,84,29.98,10.0,SE,10.4,-,N/A,,Overcast,140,2013-10-04 16:17:00
11:53 AM,84.9,75.9,74,29.98,10.0,SSE,9.2,-,N/A,,Mostly Cloudy,150,2013-10-04 16:53:00
12:53 PM,87.1,73.9,65,29.97,10.0,SE,15.0,18.4,N/A,,Mostly Cloudy,130,2013-10-04 17:53:00
1:53 PM,87.1,73.0,63,29.94,10.0,South,8.1,-,N/A,,Overcast,170,2013-10-04 18:53:00
2:53 PM,89.1,72.0,57,29.93,10.0,SSE,10.4,-,N/A,,Mostly Cloudy,160,2013-10-04 19:53:00
3:53 PM,86.0,73.0,65,29.92,10.0,South,8.1,-,N/A,,Scattered Clouds,170,2013-10-04 20:53:00
4:53 PM,81.0,73.0,77,29.94,10.0,SE,9.2,-,N/A,,Scattered Clouds,140,2013-10-04 21:53:00
5:53 PM,82.9,75.0,77,29.95,10.0,SSE,17.3,21.9,N/A,,Mostly Cloudy,150,2013-10-04 22:53:00
6:53 PM,79.0,72.0,79,29.95,10.0,SE,9.2,-,N/A,,Mostly Cloudy,140,2013-10-04 23:53:00
7:53 PM,77.0,73.0,88,29.95,10.0,SSE,4.6,-,N/A,,Scattered Clouds,160,2013-10-05 00:53:00
8:53 PM,75.9,73.0,91,29.97,10.0,SE,8.1,-,N/A,,Partly Cloudy,130,2013-10-05 01:53:00
9:53 PM,75.9,71.1,85,29.99,10.0,SE,9.2,-,N/A,,Clear,140,2013-10-05 02:53:00
10:53 PM,73.9,72.0,93,29.98,10.0,SSE,4.6,-,N/A,,Clear,160,2013-10-05 03:53:00
11:53 PM,73.0,72.0,96,29.96,10.0,SE,5.8,-,N/A,,Clear,140,2013-10-05 04:53:00